| time (UTC) | temp F | wind direction | speed MPH | gust MPH | rain 1hr in | rain 24hr in | rain mn in | humidity % | barometer mb |
| 20260906075736 | 82 | 317 | 1.0 | 3.0 | 0.00 | 0.00 | 0.00 | 75 | 1014.0 |
| 20260906075235 | 82 | 52 | 2.0 | 5.0 | 0.00 | 0.00 | 0.00 | 75 | 1014.0 |
| 20260906074735 | 82 | 18 | 3.0 | 4.0 | 0.00 | 0.00 | 0.00 | 76 | 1014.0 |
| 20260906074238 | 82 | 99 | 2.0 | 5.0 | 0.00 | 0.00 | 0.00 | 76 | 1014.0 |
| 20260906073735 | 82 | 63 | 1.0 | 4.0 | 0.00 | 0.00 | 0.00 | 76 | 1014.0 |
| 20260906073235 | 82 | 356 | 0.0 | 2.0 | 0.00 | 0.00 | 0.00 | 76 | 1014.0 |
| 20260906072736 | 83 | 67 | 0.0 | 3.0 | 0.00 | 0.00 | 0.00 | 76 | 1014.0 |
| 20260906072235 | 83 | 124 | 1.0 | 4.0 | 0.00 | 0.00 | 0.00 | 76 | 1014.0 |
| 20260906071735 | 83 | 102 | 5.0 | 5.0 | 0.00 | 0.00 | 0.00 | 76 | 1014.0 |
| 20260906071236 | 83 | 168 | 0.0 | 2.0 | 0.00 | 0.00 | 0.00 | 75 | 1014.0 |
| 20260906070735 | 83 | 203 | 0.0 | 3.0 | 0.00 | 0.00 | 0.00 | 75 | 1014.0 |
| 20260906070236 | 84 | 329 | 0.0 | 2.0 | 0.00 | 0.00 | 0.00 | 74 | 1014.0 |
| 20260906065735 | 84 | 190 | 0.0 | 2.0 | 0.00 | 0.00 | 0.00 | 74 | 1014.0 |
| 20260906065235 | 84 | 99 | 1.0 | 5.0 | 0.00 | 0.00 | 0.00 | 74 | 1014.0 |
| 20260906064735 | 84 | 106 | 4.0 | 5.0 | 0.00 | 0.00 | 0.00 | 73 | 1014.0 |
| 20260906064236 | 84 | 235 | 1.0 | 2.0 | 0.00 | 0.00 | 0.00 | 73 | 1014.0 |
| 20260906063735 | 84 | 327 | 0.0 | 3.0 | 0.00 | 0.00 | 0.00 | 73 | 1015.0 |
| 20260906063235 | 85 | 109 | 4.0 | 4.0 | 0.00 | 0.00 | 0.00 | 72 | 1015.0 |
| 20260906062735 | 85 | 231 | 1.0 | 4.0 | 0.00 | 0.00 | 0.00 | 71 | 1014.0 |
| 20260906062235 | 85 | 49 | 0.0 | 3.0 | 0.00 | 0.00 | 0.00 | 71 | 1015.0 |
| 20260906061735 | 85 | 148 | 0.0 | 3.0 | 0.00 | 0.00 | 0.00 | 70 | 1014.0 |
| 20260906061235 | 86 | 346 | 0.0 | 4.0 | 0.00 | 0.00 | 0.00 | 70 | 1014.0 |
| 20260906060735 | 86 | 119 | 2.0 | 3.0 | 0.00 | 0.00 | 0.00 | 69 | 1015.0 |
| 20260906060235 | 86 | 140 | 1.0 | 4.0 | 0.00 | 0.00 | 0.00 | 69 | 1015.0 |
| 20260906055735 | 86 | 33 | 4.0 | 4.0 | 0.00 | 0.00 | 0.00 | 69 | 1015.0 |
| 20260906055236 | 86 | 101 | 0.0 | 4.0 | 0.00 | 0.00 | 0.00 | 69 | 1014.0 |
| 20260906054735 | 86 | 349 | 3.0 | 4.0 | 0.00 | 0.00 | 0.00 | 69 | 1014.0 |
| 20260906054235 | 86 | 45 | 2.0 | 2.0 | 0.00 | 0.00 | 0.00 | 68 | 1014.0 |
| 20260906053737 | 87 | 97 | 2.0 | 3.0 | 0.00 | 0.00 | 0.00 | 68 | 1014.0 |
| 20260906053235 | 87 | 325 | 1.0 | 3.0 | 0.00 | 0.00 | 0.00 | 68 | 1014.0 |
| 20260906052735 | 87 | 232 | 0.0 | 2.0 | 0.00 | 0.00 | 0.00 | 68 | 1015.0 |
| 20260906052237 | 87 | 322 | 0.0 | 2.0 | 0.00 | 0.00 | 0.00 | 67 | 1014.0 |
| 20260906051739 | 87 | 308 | 1.0 | 2.0 | 0.00 | 0.00 | 0.00 | 67 | 1015.0 |
| 20260906051236 | 87 | 89 | 0.0 | 2.0 | 0.00 | 0.00 | 0.00 | 67 | 1015.0 |
| 20260906050735 | 87 | 304 | 0.0 | 3.0 | 0.00 | 0.00 | 0.00 | 66 | 1015.0 |
| 20260906050236 | 87 | 230 | 0.0 | 2.0 | 0.00 | 0.00 | 0.00 | 66 | 1014.0 |
| 20260906045736 | 87 | 330 | 0.0 | 2.0 | 0.00 | 0.00 | 0.00 | 66 | 1014.0 |
| 20260906045235 | 87 | 107 | 1.0 | 1.0 | 0.00 | 0.00 | 0.00 | 65 | 1014.0 |
| 20260906044735 | 87 | 254 | 0.0 | 2.0 | 0.00 | 0.00 | 0.00 | 65 | 1014.0 |
| 20260906044235 | 88 | 164 | 1.0 | 1.0 | 0.00 | 0.00 | 0.00 | 65 | 1014.0 |
| 20260906043735 | 88 | 263 | 1.0 | 2.0 | 0.00 | 0.00 | 0.00 | 64 | 1014.0 |
| 20260906043236 | 88 | 315 | 0.0 | 2.0 | 0.00 | 0.00 | 0.00 | 64 | 1014.0 |
| 20260906042735 | 88 | 160 | 1.0 | 3.0 | 0.00 | 0.00 | 0.00 | 64 | 1014.0 |
| 20260906042235 | 88 | 333 | 0.0 | 2.0 | 0.00 | 0.00 | 0.00 | 63 | 1014.0 |
| 20260906041735 | 89 | 126 | 0.0 | 2.0 | 0.00 | 0.00 | 0.00 | 63 | 1014.0 |
| 20260906041235 | 89 | 230 | 2.0 | 3.0 | 0.00 | 0.00 | 0.00 | 62 | 1014.0 |
| 20260906040735 | 89 | 304 | 0.0 | 3.0 | 0.00 | 0.00 | 0.00 | 62 | 1014.0 |
| 20260906040235 | 89 | 171 | 0.0 | 2.0 | 0.00 | 0.00 | 0.00 | 61 | 1014.0 |
| 20260906035735 | 89 | 315 | 0.0 | 3.0 | 0.00 | 0.00 | 0.00 | 61 | 1014.0 |
| 20260906035236 | 89 | 193 | 0.0 | 2.0 | 0.00 | 0.00 | 0.00 | 60 | 1014.0 |
| 20260906034735 | 89 | 8 | 2.0 | 3.0 | 0.00 | 0.00 | 0.00 | 60 | 1014.0 |
| 20260906034235 | 89 | 332 | 1.0 | 2.0 | 0.00 | 0.00 | 0.00 | 59 | 1014.0 |
| 20260906033735 | 89 | 310 | 0.0 | 3.0 | 0.00 | 0.00 | 0.00 | 59 | 1014.0 |
| 20260906033236 | 89 | 319 | 2.0 | 3.0 | 0.00 | 0.00 | 0.00 | 58 | 1014.0 |
| 20260906032735 | 90 | 80 | 0.0 | 2.0 | 0.00 | 0.00 | 0.00 | 57 | 1014.0 |
| 20260906032235 | 90 | 346 | 2.0 | 4.0 | 0.00 | 0.00 | 0.00 | 57 | 1014.0 |
| 20260906031735 | 90 | 8 | 0.0 | 6.0 | 0.00 | 0.00 | 0.00 | 56 | 1014.0 |
| 20260906031235 | 90 | 33 | 4.0 | 4.0 | 0.00 | 0.00 | 0.00 | 56 | 1014.0 |
| 20260906030735 | 90 | 344 | 1.0 | 3.0 | 0.00 | 0.00 | 0.00 | 55 | 1014.0 |
| 20260906030237 | 90 | 346 | 1.0 | 2.0 | 0.00 | 0.00 | 0.00 | 54 | 1014.0 |
| 20260906025735 | 89 | 298 | 2.0 | 4.0 | 0.00 | 0.00 | 0.00 | 54 | 1014.0 |
| 20260906025235 | 89 | 306 | 1.0 | 2.0 | 0.00 | 0.00 | 0.00 | 54 | 1014.0 |
| 20260906024735 | 89 | 314 | 0.0 | 2.0 | 0.00 | 0.00 | 0.00 | 55 | 1014.0 |
| 20260906024235 | 89 | 259 | 2.0 | 2.0 | 0.00 | 0.00 | 0.00 | 54 | 1014.0 |
| 20260906023735 | 89 | 265 | 2.0 | 3.0 | 0.00 | 0.00 | 0.00 | 54 | 1014.0 |
| 20260906023235 | 89 | 271 | 0.0 | 2.0 | 0.00 | 0.00 | 0.00 | 53 | 1014.0 |
| 20260906022735 | 89 | 255 | 0.0 | 2.0 | 0.00 | 0.00 | 0.00 | 53 | 1013.0 |
| 20260906022235 | 89 | 307 | 0.0 | 2.0 | 0.00 | 0.00 | 0.00 | 53 | 1013.0 |
| 20260906021735 | 90 | 266 | 1.0 | 2.0 | 0.00 | 0.00 | 0.00 | 53 | 1013.0 |
| 20260906021235 | 90 | 251 | 2.0 | 2.0 | 0.00 | 0.00 | 0.00 | 53 | 1013.0 |
| 20260906020735 | 90 | 266 | 1.0 | 2.0 | 0.00 | 0.00 | 0.00 | 52 | 1013.0 |
| 20260906020235 | 90 | 266 | 1.0 | 2.0 | 0.00 | 0.00 | 0.00 | 52 | 1013.0 |
| 20260906015736 | 90 | 296 | 2.0 | 2.0 | 0.00 | 0.00 | 0.00 | 52 | 1013.0 |
| 20260906015236 | 90 | 255 | 1.0 | 2.0 | 0.00 | 0.00 | 0.00 | 53 | 1013.0 |
| 20260906014735 | 90 | 269 | 1.0 | 2.0 | 0.00 | 0.00 | 0.00 | 53 | 1013.0 |
| 20260906014235 | 91 | 262 | 2.0 | 2.0 | 0.00 | 0.00 | 0.00 | 53 | 1013.0 |
| 20260906013735 | 91 | 258 | 2.0 | 2.0 | 0.00 | 0.00 | 0.00 | 51 | 1013.0 |
| 20260906013236 | 91 | 271 | 1.0 | 2.0 | 0.00 | 0.00 | 0.00 | 51 | 1013.0 |
| 20260906012735 | 92 | 252 | 1.0 | 2.0 | 0.00 | 0.00 | 0.00 | 50 | 1013.0 |
| 20260906012235 | 92 | 262 | 0.0 | 2.0 | 0.00 | 0.00 | 0.00 | 50 | 1013.0 |
| 20260906011736 | 92 | 333 | 1.0 | 2.0 | 0.00 | 0.00 | 0.00 | 50 | 1013.0 |
| 20260906011236 | 92 | 258 | 1.0 | 2.0 | 0.00 | 0.00 | 0.00 | 49 | 1013.0 |
| 20260906010735 | 93 | 262 | 1.0 | 2.0 | 0.00 | 0.00 | 0.00 | 49 | 1013.0 |
| 20260906010235 | 93 | 266 | 0.0 | 2.0 | 0.00 | 0.00 | 0.00 | 48 | 1013.0 |
| 20260906005735 | 93 | 301 | 0.0 | 3.0 | 0.00 | 0.00 | 0.00 | 48 | 1012.0 |
| 20260906005235 | 93 | 313 | 1.0 | 2.0 | 0.00 | 0.00 | 0.00 | 47 | 1012.0 |
| 20260906004736 | 93 | 324 | 2.0 | 3.0 | 0.00 | 0.00 | 0.00 | 47 | 1012.0 |
| 20260906004235 | 94 | 314 | 1.0 | 3.0 | 0.00 | 0.00 | 0.00 | 47 | 1012.0 |
| 20260906003735 | 94 | 268 | 2.0 | 2.0 | 0.00 | 0.00 | 0.00 | 46 | 1012.0 |
| 20260906003235 | 94 | 308 | 1.0 | 2.0 | 0.00 | 0.00 | 0.00 | 46 | 1012.0 |
| 20260906002735 | 95 | 259 | 1.0 | 2.0 | 0.00 | 0.00 | 0.00 | 46 | 1012.0 |
| 20260906002235 | 95 | 259 | 2.0 | 2.0 | 0.00 | 0.00 | 0.00 | 45 | 1012.0 |
| 20260906001735 | 95 | 195 | 0.0 | 2.0 | 0.00 | 0.00 | 0.00 | 45 | 1012.0 |
| 20260906001235 | 95 | 232 | 2.0 | 2.0 | 0.00 | 0.00 | 0.00 | 44 | 1012.0 |
| 20260906000735 | 95 | 355 | 3.0 | 3.0 | 0.00 | 0.00 | 0.00 | 44 | 1012.0 |
| 20260906000235 | 95 | 319 | 3.0 | 3.0 | 0.00 | 0.00 | 0.00 | 43 | 1012.0 |
| 20260905235735 | 96 | 260 | 1.0 | 2.0 | 0.00 | 0.00 | 0.00 | 44 | 1012.0 |
| 20260905235235 | 96 | 308 | 2.0 | 3.0 | 0.00 | 0.00 | 0.00 | 43 | 1012.0 |
| 20260905234735 | 96 | 281 | 1.0 | 3.0 | 0.00 | 0.00 | 0.00 | 44 | 1012.0 |
| 20260905234235 | 96 | 277 | 2.0 | 2.0 | 0.00 | 0.00 | 0.00 | 44 | 1012.0 |
| 20260905233735 | 97 | 283 | 1.0 | 2.0 | 0.00 | 0.00 | 0.00 | 43 | 1012.0 |
| 20260905233235 | 97 | 257 | 1.0 | 3.0 | 0.00 | 0.00 | 0.00 | 43 | 1012.0 |
| 20260905232735 | 97 | 280 | 3.0 | 4.0 | 0.00 | 0.00 | 0.00 | 42 | 1012.0 |
| 20260905232235 | 97 | 296 | 3.0 | 4.0 | 0.00 | 0.00 | 0.00 | 42 | 1013.0 |
| 20260905231735 | 97 | 285 | 3.0 | 4.0 | 0.00 | 0.00 | 0.00 | 41 | 1012.0 |
| 20260905231235 | 97 | 285 | 3.0 | 5.0 | 0.00 | 0.00 | 0.00 | 42 | 1013.0 |
| 20260905230735 | 97 | 303 | 4.0 | 5.0 | 0.00 | 0.00 | 0.00 | 41 | 1012.0 |
| 20260905230236 | 98 | 283 | 3.0 | 6.0 | 0.00 | 0.00 | 0.00 | 40 | 1013.0 |
| 20260905225735 | 99 | 304 | 4.0 | 5.0 | 0.00 | 0.00 | 0.00 | 39 | 1012.0 |
| 20260905225235 | 99 | 286 | 3.0 | 4.0 | 0.00 | 0.00 | 0.00 | 39 | 1012.0 |
| 20260905224735 | 99 | 304 | 0.0 | 3.0 | 0.00 | 0.00 | 0.00 | 40 | 1012.0 |
| 20260905224235 | 99 | 266 | 3.0 | 5.0 | 0.00 | 0.00 | 0.00 | 40 | 1012.0 |
| 20260905223735 | 98 | 291 | 3.0 | 5.0 | 0.00 | 0.00 | 0.00 | 40 | 1012.0 |
| 20260905223236 | 98 | 276 | 3.0 | 4.0 | 0.00 | 0.00 | 0.00 | 41 | 1012.0 |
| 20260905222735 | 98 | 280 | 4.0 | 4.0 | 0.00 | 0.00 | 0.00 | 42 | 1012.0 |
| 20260905222236 | 98 | 290 | 2.0 | 4.0 | 0.00 | 0.00 | 0.00 | 42 | 1012.0 |
| 20260905221736 | 98 | 295 | 2.0 | 3.0 | 0.00 | 0.00 | 0.00 | 41 | 1012.0 |
| 20260905221235 | 98 | 281 | 4.0 | 4.0 | 0.00 | 0.00 | 0.00 | 41 | 1012.0 |
| 20260905220735 | 98 | 312 | 3.0 | 4.0 | 0.00 | 0.00 | 0.00 | 40 | 1012.0 |
| 20260905220236 | 98 | 278 | 2.0 | 4.0 | 0.00 | 0.00 | 0.00 | 41 | 1013.0 |
| 20260905215735 | 98 | 302 | 5.0 | 5.0 | 0.00 | 0.00 | 0.00 | 41 | 1012.0 |
| 20260905215235 | 99 | 324 | 3.0 | 5.0 | 0.00 | 0.00 | 0.00 | 40 | 1013.0 |
| 20260905214735 | 99 | 264 | 5.0 | 7.0 | 0.00 | 0.00 | 0.00 | 39 | 1012.0 |
| 20260905214235 | 99 | 260 | 4.0 | 6.0 | 0.00 | 0.00 | 0.00 | 39 | 1012.0 |
| 20260905213736 | 98 | 267 | 2.0 | 4.0 | 0.00 | 0.00 | 0.00 | 38 | 1012.0 |
| 20260905213235 | 98 | 264 | 3.0 | 4.0 | 0.00 | 0.00 | 0.00 | 38 | 1012.0 |
| 20260905212735 | 98 | 261 | 2.0 | 4.0 | 0.00 | 0.00 | 0.00 | 39 | 1012.0 |
| 20260905212235 | 97 | 275 | 2.0 | 4.0 | 0.00 | 0.00 | 0.00 | 38 | 1012.0 |
| 20260905211735 | 97 | 258 | 4.0 | 5.0 | 0.00 | 0.00 | 0.00 | 38 | 1012.0 |
| 20260905211236 | 97 | 273 | 2.0 | 3.0 | 0.00 | 0.00 | 0.00 | 39 | 1012.0 |
| 20260905210735 | 96 | 243 | 3.0 | 5.0 | 0.00 | 0.00 | 0.00 | 39 | 1012.0 |
| 20260905210235 | 95 | 267 | 3.0 | 5.0 | 0.00 | 0.00 | 0.00 | 39 | 1013.0 |
| 20260905205736 | 96 | 259 | 3.0 | 5.0 | 0.00 | 0.00 | 0.00 | 38 | 1013.0 |
| 20260905205235 | 96 | 260 | 3.0 | 7.0 | 0.00 | 0.00 | 0.00 | 38 | 1013.0 |
| 20260905204735 | 96 | 231 | 2.0 | 5.0 | 0.00 | 0.00 | 0.00 | 39 | 1013.0 |
| 20260905204236 | 95 | 237 | 3.0 | 5.0 | 0.00 | 0.00 | 0.00 | 39 | 1013.0 |
| 20260905203736 | 97 | 284 | 7.0 | 10.0 | 0.00 | 0.00 | 0.00 | 37 | 1013.0 |
| 20260905203235 | 98 | 250 | 5.0 | 5.0 | 0.00 | 0.00 | 0.00 | 39 | 1013.0 |
| 20260905202740 | 98 | 285 | 2.0 | 3.0 | 0.00 | 0.00 | 0.00 | 39 | 1013.0 |
| 20260905202236 | 99 | 292 | 3.0 | 4.0 | 0.00 | 0.00 | 0.00 | 40 | 1013.0 |
| 20260905201735 | 99 | 302 | 2.0 | 2.0 | 0.00 | 0.00 | 0.00 | 38 | 1013.0 |
| 20260905201235 | 99 | 258 | 2.0 | 3.0 | 0.00 | 0.00 | 0.00 | 37 | 1013.0 |
| 20260905200735 | 100 | 249 | 4.0 | 4.0 | 0.00 | 0.00 | 0.00 | 37 | 1013.0 |
| 20260905200235 | 100 | 285 | 1.0 | 3.0 | 0.00 | 0.00 | 0.00 | 36 | 1013.0 |
| 20260905195736 | 100 | 272 | 1.0 | 4.0 | 0.00 | 0.00 | 0.00 | 35 | 1013.0 |
| 20260905195236 | 100 | 236 | 0.0 | 3.0 | 0.00 | 0.00 | 0.00 | 36 | 1013.0 |
| 20260905194735 | 101 | 298 | 5.0 | 6.0 | 0.00 | 0.00 | 0.00 | 35 | 1013.0 |
| 20260905194235 | 100 | 279 | 2.0 | 5.0 | 0.00 | 0.00 | 0.00 | 36 | 1013.0 |
| 20260905193735 | 101 | 280 | 3.0 | 6.0 | 0.00 | 0.00 | 0.00 | 35 | 1013.0 |
| 20260905193235 | 101 | 315 | 4.0 | 5.0 | 0.00 | 0.00 | 0.00 | 36 | 1013.0 |
| 20260905192735 | 100 | 296 | 3.0 | 5.0 | 0.00 | 0.00 | 0.00 | 36 | 1014.0 |
| 20260905192235 | 100 | 295 | 2.0 | 3.0 | 0.00 | 0.00 | 0.00 | 37 | 1013.0 |
| 20260905191736 | 100 | 251 | 4.0 | 8.0 | 0.00 | 0.00 | 0.00 | 36 | 1013.0 |
| 20260905191236 | 100 | 260 | 2.0 | 5.0 | 0.00 | 0.00 | 0.00 | 36 | 1014.0 |
| 20260905190736 | 100 | 269 | 4.0 | 5.0 | 0.00 | 0.00 | 0.00 | 36 | 1014.0 |
| 20260905190236 | 100 | 256 | 4.0 | 6.0 | 0.00 | 0.00 | 0.00 | 36 | 1013.0 |
| 20260905185736 | 100 | 285 | 3.0 | 6.0 | 0.00 | 0.00 | 0.00 | 36 | 1013.0 |
| 20260905185235 | 100 | 249 | 5.0 | 10.0 | 0.00 | 0.00 | 0.00 | 37 | 1014.0 |
| 20260905184736 | 99 | 243 | 8.0 | 9.0 | 0.00 | 0.00 | 0.00 | 37 | 1014.0 |
| 20260905184235 | 99 | 275 | 4.0 | 5.0 | 0.00 | 0.00 | 0.00 | 38 | 1014.0 |
| 20260905183736 | 99 | 258 | 4.0 | 7.0 | 0.00 | 0.00 | 0.00 | 37 | 1014.0 |
| 20260905183235 | 100 | 302 | 7.0 | 9.0 | 0.00 | 0.00 | 0.00 | 39 | 1014.0 |
| 20260905182735 | 99 | 310 | 2.0 | 5.0 | 0.00 | 0.00 | 0.00 | 41 | 1014.0 |
| 20260905182235 | 98 | 241 | 3.0 | 4.0 | 0.00 | 0.00 | 0.00 | 39 | 1014.0 |
| 20260905181735 | 98 | 274 | 2.0 | 6.0 | 0.00 | 0.00 | 0.00 | 40 | 1014.0 |
| 20260905181235 | 98 | 335 | 2.0 | 5.0 | 0.00 | 0.00 | 0.00 | 40 | 1014.0 |
| 20260905180735 | 98 | 275 | 1.0 | 4.0 | 0.00 | 0.00 | 0.00 | 43 | 1014.0 |
| 20260905180235 | 97 | 281 | 3.0 | 7.0 | 0.00 | 0.00 | 0.00 | 42 | 1014.0 |
| 20260905175735 | 97 | 271 | 3.0 | 5.0 | 0.00 | 0.00 | 0.00 | 43 | 1014.0 |
| 20260905175235 | 97 | 229 | 7.0 | 8.0 | 0.00 | 0.00 | 0.00 | 43 | 1014.0 |
| 20260905174736 | 97 | 306 | 5.0 | 5.0 | 0.00 | 0.00 | 0.00 | 43 | 1014.0 |
| 20260905174235 | 96 | 310 | 3.0 | 5.0 | 0.00 | 0.00 | 0.00 | 43 | 1014.0 |
| 20260905173735 | 97 | 252 | 3.0 | 6.0 | 0.00 | 0.00 | 0.00 | 42 | 1014.0 |
| 20260905173235 | 97 | 247 | 5.0 | 6.0 | 0.00 | 0.00 | 0.00 | 43 | 1014.0 |
| 20260905172736 | 97 | 277 | 3.0 | 6.0 | 0.00 | 0.00 | 0.00 | 43 | 1014.0 |
| 20260905172235 | 96 | 278 | 3.0 | 5.0 | 0.00 | 0.00 | 0.00 | 44 | 1014.0 |
| 20260905171736 | 96 | 259 | 4.0 | 5.0 | 0.00 | 0.00 | 0.00 | 44 | 1015.0 |
| 20260905171239 | 96 | 245 | 4.0 | 7.0 | 0.00 | 0.00 | 0.00 | 43 | 1014.0 |
| 20260905170737 | 96 | 305 | 2.0 | 6.0 | 0.00 | 0.00 | 0.00 | 44 | 1014.0 |
| 20260905170236 | 95 | 287 | 3.0 | 5.0 | 0.00 | 0.00 | 0.00 | 45 | 1015.0 |
| 20260905165736 | 95 | 245 | 3.0 | 5.0 | 0.00 | 0.00 | 0.00 | 45 | 1015.0 |
| 20260905165236 | 95 | 228 | 4.0 | 5.0 | 0.00 | 0.00 | 0.00 | 46 | 1015.0 |
| 20260905164735 | 95 | 297 | 4.0 | 4.0 | 0.00 | 0.00 | 0.00 | 47 | 1015.0 |
| 20260905164236 | 95 | 263 | 6.0 | 6.0 | 0.00 | 0.00 | 0.00 | 46 | 1015.0 |
| 20260905163735 | 95 | 292 | 4.0 | 5.0 | 0.00 | 0.00 | 0.00 | 46 | 1015.0 |
| 20260905163237 | 94 | 302 | 2.0 | 4.0 | 0.00 | 0.00 | 0.00 | 48 | 1015.0 |
| 20260905162735 | 94 | 289 | 5.0 | 5.0 | 0.00 | 0.00 | 0.00 | 47 | 1015.0 |
| 20260905162235 | 94 | 273 | 4.0 | 6.0 | 0.00 | 0.00 | 0.00 | 49 | 1015.0 |
| 20260905161735 | 93 | 268 | 3.0 | 7.0 | 0.00 | 0.00 | 0.00 | 48 | 1015.0 |
| 20260905161235 | 93 | 280 | 3.0 | 4.0 | 0.00 | 0.00 | 0.00 | 49 | 1015.0 |
| 20260905160736 | 93 | 254 | 2.0 | 5.0 | 0.00 | 0.00 | 0.00 | 50 | 1015.0 |
| 20260905160236 | 93 | 289 | 3.0 | 6.0 | 0.00 | 0.00 | 0.00 | 50 | 1015.0 |
| 20260905155735 | 93 | 279 | 3.0 | 3.0 | 0.00 | 0.00 | 0.00 | 51 | 1015.0 |
| 20260905155235 | 92 | 293 | 3.0 | 4.0 | 0.00 | 0.00 | 0.00 | 51 | 1015.0 |
| 20260905154736 | 92 | 266 | 2.0 | 5.0 | 0.00 | 0.00 | 0.00 | 52 | 1015.0 |
| 20260905154235 | 91 | 277 | 2.0 | 3.0 | 0.00 | 0.00 | 0.00 | 54 | 1015.0 |
| 20260905153735 | 91 | 288 | 2.0 | 4.0 | 0.00 | 0.00 | 0.00 | 56 | 1015.0 |
| 20260905153235 | 90 | 269 | 4.0 | 5.0 | 0.00 | 0.00 | 0.00 | 56 | 1015.0 |
| 20260905152735 | 90 | 241 | 3.0 | 5.0 | 0.00 | 0.00 | 0.00 | 58 | 1015.0 |
| 20260905152235 | 89 | 255 | 3.0 | 4.0 | 0.00 | 0.00 | 0.00 | 58 | 1015.0 |
| 20260905151735 | 88 | 251 | 3.0 | 6.0 | 0.00 | 0.00 | 0.00 | 59 | 1015.0 |
| 20260905151235 | 87 | 241 | 2.0 | 5.0 | 0.00 | 0.00 | 0.00 | 60 | 1015.0 |
| 20260905150736 | 88 | 250 | 3.0 | 4.0 | 0.00 | 0.00 | 0.00 | 61 | 1015.0 |
| 20260905150235 | 87 | 239 | 2.0 | 3.0 | 0.00 | 0.00 | 0.00 | 62 | 1015.0 |
| 20260905145735 | 87 | 282 | 2.0 | 4.0 | 0.00 | 0.00 | 0.00 | 61 | 1015.0 |
| 20260905145235 | 88 | 267 | 3.0 | 5.0 | 0.00 | 0.00 | 0.00 | 61 | 1015.0 |
| 20260905144735 | 88 | 266 | 3.0 | 5.0 | 0.00 | 0.00 | 0.00 | 61 | 1015.0 |
| 20260905144236 | 87 | 246 | 4.0 | 5.0 | 0.00 | 0.00 | 0.00 | 61 | 1015.0 |
| 20260905143735 | 86 | 264 | 4.0 | 5.0 | 0.00 | 0.00 | 0.00 | 62 | 1015.0 |
| 20260905143235 | 86 | 260 | 2.0 | 4.0 | 0.00 | 0.00 | 0.00 | 63 | 1015.0 |
| 20260905142735 | 86 | 274 | 3.0 | 4.0 | 0.00 | 0.00 | 0.00 | 63 | 1015.0 |
| 20260905142236 | 85 | 257 | 3.0 | 6.0 | 0.00 | 0.00 | 0.00 | 63 | 1015.0 |
| 20260905141735 | 85 | 271 | 3.0 | 5.0 | 0.00 | 0.00 | 0.00 | 63 | 1015.0 |
| 20260905141235 | 85 | 272 | 3.0 | 4.0 | 0.00 | 0.00 | 0.00 | 64 | 1015.0 |
| 20260905140738 | 85 | 258 | 3.0 | 7.0 | 0.00 | 0.00 | 0.00 | 64 | 1015.0 |
| 20260905140236 | 85 | 264 | 3.0 | 5.0 | 0.00 | 0.00 | 0.00 | 64 | 1015.0 |
| 20260905135735 | 84 | 257 | 2.0 | 4.0 | 0.00 | 0.00 | 0.00 | 65 | 1015.0 |
| 20260905134755 | 84 | 262 | 3.0 | 4.0 | 0.00 | 0.00 | 0.00 | 66 | 1015.0 |
| 20260905134235 | 84 | 274 | 3.0 | 5.0 | 0.00 | 0.00 | 0.00 | 66 | 1015.0 |
| 20260905133735 | 83 | 255 | 2.0 | 4.0 | 0.00 | 0.00 | 0.00 | 67 | 1015.0 |
| 20260905133235 | 83 | 249 | 3.0 | 3.0 | 0.00 | 0.00 | 0.00 | 68 | 1015.0 |
| 20260905132736 | 83 | 234 | 3.0 | 4.0 | 0.00 | 0.00 | 0.00 | 69 | 1015.0 |
| 20260905132235 | 83 | 250 | 2.0 | 4.0 | 0.00 | 0.00 | 0.00 | 69 | 1015.0 |
| 20260905131735 | 83 | 249 | 3.0 | 4.0 | 0.00 | 0.00 | 0.00 | 69 | 1015.0 |
| 20260905131235 | 82 | 254 | 3.0 | 3.0 | 0.00 | 0.00 | 0.00 | 70 | 1015.0 |
| 20260905130735 | 82 | 267 | 2.0 | 3.0 | 0.00 | 0.00 | 0.00 | 70 | 1015.0 |
| 20260905130235 | 82 | 262 | 2.0 | 3.0 | 0.00 | 0.00 | 0.00 | 71 | 1015.0 |
| 20260905125735 | 81 | 265 | 3.0 | 3.0 | 0.00 | 0.00 | 0.00 | 72 | 1015.0 |
| 20260905125235 | 80 | 248 | 2.0 | 2.0 | 0.00 | 0.00 | 0.00 | 73 | 1015.0 |
| 20260905124735 | 80 | 241 | 3.0 | 3.0 | 0.00 | 0.00 | 0.00 | 74 | 1015.0 |
| 20260905124235 | 80 | 274 | 1.0 | 2.0 | 0.00 | 0.00 | 0.00 | 75 | 1015.0 |
| 20260905123736 | 80 | 253 | 3.0 | 3.0 | 0.00 | 0.00 | 0.00 | 74 | 1015.0 |
| 20260905123236 | 80 | 249 | 2.0 | 2.0 | 0.00 | 0.00 | 0.00 | 74 | 1014.0 |
| 20260905122735 | 80 | 246 | 2.0 | 2.0 | 0.00 | 0.00 | 0.00 | 75 | 1014.0 |
| 20260905122235 | 80 | 252 | 2.0 | 3.0 | 0.00 | 0.00 | 0.00 | 75 | 1014.0 |
| 20260905121735 | 80 | 261 | 2.0 | 2.0 | 0.00 | 0.00 | 0.00 | 74 | 1014.0 |
| 20260905121236 | 80 | 246 | 1.0 | 2.0 | 0.00 | 0.00 | 0.00 | 75 | 1015.0 |
| 20260905120735 | 80 | 246 | 2.0 | 3.0 | 0.00 | 0.00 | 0.00 | 74 | 1015.0 |
| 20260905120235 | 80 | 248 | 2.0 | 3.0 | 0.00 | 0.00 | 0.00 | 74 | 1014.0 |
| 20260905115736 | 80 | 249 | 3.0 | 3.0 | 0.00 | 0.00 | 0.00 | 74 | 1014.0 |
| 20260905115235 | 80 | 228 | 2.0 | 2.0 | 0.00 | 0.00 | 0.00 | 74 | 1014.0 |
| 20260905114736 | 80 | 282 | 1.0 | 2.0 | 0.00 | 0.00 | 0.00 | 74 | 1014.0 |
| 20260905114235 | 80 | 244 | 2.0 | 3.0 | 0.00 | 0.00 | 0.00 | 74 | 1014.0 |
| 20260905113735 | 79 | 249 | 2.0 | 2.0 | 0.00 | 0.00 | 0.00 | 75 | 1014.0 |
| 20260905113235 | 79 | 232 | 1.0 | 2.0 | 0.00 | 0.00 | 0.00 | 76 | 1014.0 |
| 20260905112735 | 79 | 224 | 0.0 | 2.0 | 0.00 | 0.00 | 0.00 | 76 | 1014.0 |
| 20260905112235 | 79 | 236 | 2.0 | 2.0 | 0.00 | 0.00 | 0.00 | 77 | 1014.0 |
| 20260905111735 | 79 | 228 | 0.0 | 1.0 | 0.00 | 0.00 | 0.00 | 78 | 1014.0 |
| 20260905111235 | 79 | 245 | 0.0 | 1.0 | 0.00 | 0.00 | 0.00 | 78 | 1014.0 |
| 20260905110735 | 79 | 258 | 1.0 | 2.0 | 0.00 | 0.00 | 0.00 | 78 | 1014.0 |
| 20260905110237 | 79 | 254 | 0.0 | 1.0 | 0.00 | 0.00 | 0.00 | 78 | 1014.0 |
| 20260905105735 | 79 | 231 | 1.0 | 2.0 | 0.00 | 0.00 | 0.00 | 78 | 1014.0 |
| 20260905105235 | 79 | 260 | 1.0 | 1.0 | 0.00 | 0.00 | 0.00 | 77 | 1014.0 |
| 20260905104735 | 79 | 260 | 1.0 | 2.0 | 0.00 | 0.00 | 0.00 | 77 | 1014.0 |
| 20260905104235 | 79 | 253 | 1.0 | 2.0 | 0.00 | 0.00 | 0.00 | 77 | 1014.0 |
| 20260905103735 | 79 | 267 | 1.0 | 2.0 | 0.00 | 0.00 | 0.00 | 77 | 1014.0 |
| 20260905103235 | 79 | 247 | 1.0 | 2.0 | 0.00 | 0.00 | 0.00 | 77 | 1014.0 |
| 20260905102735 | 79 | 252 | 0.0 | 2.0 | 0.00 | 0.00 | 0.00 | 76 | 1014.0 |
| 20260905102236 | 79 | 223 | 1.0 | 2.0 | 0.00 | 0.00 | 0.00 | 76 | 1014.0 |
| 20260905101735 | 79 | 238 | 1.0 | 2.0 | 0.00 | 0.00 | 0.00 | 77 | 1014.0 |
| 20260905101235 | 79 | 242 | 1.0 | 2.0 | 0.00 | 0.00 | 0.00 | 76 | 1014.0 |
| 20260905100735 | 79 | 221 | 1.0 | 2.0 | 0.00 | 0.00 | 0.00 | 77 | 1014.0 |
| 20260905100235 | 79 | 227 | 1.0 | 2.0 | 0.00 | 0.00 | 0.00 | 77 | 1014.0 |
| 20260905095735 | 79 | 258 | 0.0 | 2.0 | 0.00 | 0.00 | 0.00 | 77 | 1014.0 |
| 20260905095235 | 79 | 249 | 1.0 | 2.0 | 0.00 | 0.00 | 0.00 | 78 | 1014.0 |
| 20260905094735 | 79 | 222 | 0.0 | 1.0 | 0.00 | 0.00 | 0.00 | 78 | 1014.0 |
| 20260905094235 | 79 | 242 | 0.0 | 1.0 | 0.00 | 0.00 | 0.00 | 77 | 1014.0 |
| 20260905093735 | 79 | 266 | 1.0 | 1.0 | 0.00 | 0.00 | 0.00 | 77 | 1014.0 |
| 20260905093235 | 79 | 261 | 1.0 | 2.0 | 0.00 | 0.00 | 0.00 | 77 | 1014.0 |
| 20260905092735 | 80 | 258 | 1.0 | 2.0 | 0.00 | 0.00 | 0.00 | 77 | 1014.0 |
| 20260905092235 | 80 | 254 | 0.0 | 2.0 | 0.00 | 0.00 | 0.00 | 76 | 1014.0 |
| 20260905091735 | 80 | 263 | 0.0 | 2.0 | 0.00 | 0.00 | 0.00 | 76 | 1014.0 |
| 20260905091235 | 80 | 249 | 1.0 | 2.0 | 0.00 | 0.00 | 0.00 | 76 | 1014.0 |
| 20260905090736 | 80 | 250 | 2.0 | 2.0 | 0.00 | 0.00 | 0.00 | 76 | 1014.0 |
| 20260905090235 | 80 | 257 | 1.0 | 2.0 | 0.00 | 0.00 | 0.00 | 75 | 1014.0 |
| 20260905085735 | 80 | 244 | 1.0 | 2.0 | 0.00 | 0.00 | 0.00 | 75 | 1014.0 |
| 20260905085235 | 80 | 260 | 1.0 | 2.0 | 0.00 | 0.00 | 0.00 | 75 | 1014.0 |
| 20260905084735 | 80 | 272 | 1.0 | 2.0 | 0.00 | 0.00 | 0.00 | 75 | 1014.0 |
| 20260905084235 | 80 | 230 | 0.0 | 2.0 | 0.00 | 0.00 | 0.00 | 75 | 1014.0 |
| 20260905083735 | 80 | 245 | 2.0 | 2.0 | 0.00 | 0.00 | 0.00 | 74 | 1014.0 |
| 20260905083235 | 81 | 232 | 1.0 | 2.0 | 0.00 | 0.00 | 0.00 | 74 | 1014.0 |
| 20260905082737 | 81 | 251 | 1.0 | 2.0 | 0.00 | 0.00 | 0.00 | 74 | 1014.0 |
| 20260905082235 | 81 | 243 | 2.0 | 3.0 | 0.00 | 0.00 | 0.00 | 74 | 1014.0 |
| 20260905081735 | 81 | 268 | 0.0 | 1.0 | 0.00 | 0.00 | 0.00 | 74 | 1014.0 |
| 20260905081236 | 81 | 235 | 0.0 | 2.0 | 0.00 | 0.00 | 0.00 | 73 | 1014.0 |
| 20260905080735 | 81 | 263 | 1.0 | 2.0 | 0.00 | 0.00 | 0.00 | 73 | 1014.0 |
| 20260905080235 | 81 | 262 | 1.0 | 2.0 | 0.00 | 0.00 | 0.00 | 73 | 1014.0 |